Weather History for LKTB - November, 2011

Change the Weather History Date:

Friday, November 4, 2011

  Actual Average Record
Temperature  
Mean Temperature 46 °F -  
Max Temperature 51 °F 43 °F - ()
Min Temperature 41 °F 33 °F - ()
Degree Days  
Heating Degree Days 19    
Moisture  
Dew Point 40 °F    
Average Humidity 71    
Maximum Humidity 81    
Minimum Humidity 63    
Precipitation  
Precipitation 0.00 in 0.05 in - ()
Sea Level Pressure  
Sea Level Pressure 29.90 in    
Wind  
Wind Speed 10 mph ()    
Max Wind Speed 16 mph    
Max Gust Speed -    
Visibility 3.7 miles    
Events      
T = Trace of Precipitation, MM = Missing Value Source: Averaged Metar Reports

Daily Weather History Graph

Daily Weather History Graph

Search for Another Location

Airport or City:

Trip Planner

Search our weather history database for the weather conditions in past years. The results will help you decide how hot, cold, wet, or windy it might be!

Date:

Astronomy

Nov. 04, 2011 Rise Set
Actual Time 6:44 AM CET 4:28 PM CET
Civil Twilight 6:11 AM CET 5:01 PM CET
Nautical Twilight 5:33 AM CET 5:39 PM CET
Astronomical Twilight 4:56 AM CET 6:16 PM CET
Moon 1:39 PM CET (11/4) 12:08 AM CET (11/4)
Length of Visible Light 10h 50m
Length of Day
9h 43m
Waxing Gibbous, 67% of the Moon is Illuminated
Nov 4
Waxing Gibbous
Nov 10
Full
Nov 18
Last Quarter
Nov 25
New
Dec 2
First Quarter

Hourly Weather History & Observations

Time (CET) Temp. Windchill Dew Point Humidity Pressure Visibility Wind Dir Wind Speed Gust Speed Precip Events Conditions
12:00 AM 46.4 °F 40.1 °F 39.2 °F 76% 29.92 in 5.0 mi SE 15.0 mph - N/A   Overcast
12:30 AM 46.4 °F 40.4 °F 39.2 °F 76% 29.92 in 5.0 mi SE 13.8 mph - N/A   Overcast
1:00 AM 47 °F - 39 °F 65% 29.93 in 5 mi SE 8.9 mph - -   Mist
1:00 AM 46.4 °F 41.1 °F 39.2 °F 76% 29.89 in 5.0 mi SE 11.5 mph - N/A   Overcast
1:30 AM 46.4 °F 41.1 °F 39.2 °F 76% 29.89 in 5.0 mi SE 11.5 mph - N/A   Overcast
2:00 AM 46.4 °F 41.1 °F 39.2 °F 76% 29.89 in 5.0 mi SE 11.5 mph - N/A   Overcast
2:30 AM 48.2 °F - 39.2 °F 71% 29.89 in 5.0 mi SE 11.5 mph - N/A   Overcast
3:00 AM 48.2 °F - 39.2 °F 71% 29.89 in 5.0 mi SE 11.5 mph - N/A   Overcast
3:30 AM 48.2 °F - 39.2 °F 71% 29.89 in 5.6 mi SE 11.5 mph - N/A   Overcast
4:00 AM 48.2 °F - 41.0 °F 76% 29.89 in 5.6 mi SE 11.5 mph - N/A   Overcast
4:30 AM 48.2 °F - 41.0 °F 76% 29.89 in 5.6 mi SE 10.4 mph - N/A   Overcast
5:00 AM 48.2 °F - 41.0 °F 76% 29.89 in 5.6 mi SE 8.1 mph - N/A   Overcast
5:30 AM 48.2 °F - 39.2 °F 71% 29.89 in 5.0 mi SE 6.9 mph - N/A   Overcast
6:00 AM 48.2 °F - 41.0 °F 76% 29.89 in 5.6 mi SE 6.9 mph - N/A   Overcast
6:30 AM 48.2 °F - 39.2 °F 71% 29.86 in 3.7 mi SE 10.4 mph - N/A   Overcast
7:00 AM 48 °F - 39 °F 63% 29.91 in 3 mi ESE 15.7 mph - -   Mist
7:00 AM 48.2 °F - 39.2 °F 71% 29.89 in 3.1 mi SE 10.4 mph - N/A   Overcast
7:30 AM 48.2 °F - 39.2 °F 71% 29.89 in 3.1 mi SE 13.8 mph - N/A   Overcast
8:00 AM 48.2 °F - 39.2 °F 71% 29.89 in 2.8 mi SE 15.0 mph - N/A   Overcast
8:30 AM 48.2 °F - 39.2 °F 71% 29.89 in 2.5 mi SE 15.0 mph - N/A   Overcast
9:00 AM 48.2 °F - 39.2 °F 71% 29.89 in - SE 15.0 mph - N/A   Overcast
9:30 AM 46.4 °F 40.1 °F 41.0 °F 81% 29.89 in - SE 15.0 mph - N/A   Overcast
10:00 AM 48.2 °F - 41.0 °F 76% 29.89 in 2.5 mi SE 15.0 mph - N/A   Overcast
10:30 AM 48.2 °F - 39.2 °F 71% 29.89 in 2.8 mi SE 16.1 mph - N/A   Overcast
11:00 AM 48.2 °F - 39.2 °F 71% 29.89 in 2.8 mi SE 16.1 mph - N/A   Overcast
11:30 AM 48.2 °F - 39.2 °F 71% 29.89 in 3.1 mi SE 13.8 mph - N/A   Overcast
12:00 PM 48.2 °F - 41.0 °F 76% 29.89 in 2.5 mi SSE 13.8 mph - N/A   Overcast
12:08 PM 46.4 °F 40.7 °F 41.0 °F 81% 29.89 in 2.5 mi SE 12.7 mph - N/A   Overcast
12:30 PM 48.2 °F - 41.0 °F 76% 29.89 in 2.5 mi SE 11.5 mph - N/A   Overcast
1:00 PM 48 °F - 41 °F 68% 29.92 in 2 mi SE 11.2 mph - -   Mist
1:00 PM 48.2 °F - 41.0 °F 76% 29.89 in 2.5 mi SE 9.2 mph - N/A   Overcast
1:13 PM 48.2 °F - 41.0 °F 76% 29.89 in 2.5 mi SSE 8.1 mph - N/A   Overcast
1:30 PM 48.2 °F - 41.0 °F 76% 29.89 in 3.1 mi SSE 8.1 mph - N/A   Overcast
2:00 PM 48.2 °F - 41.0 °F 76% 29.89 in 3.1 mi SSE 6.9 mph - N/A   Overcast
2:30 PM 50.0 °F - 41.0 °F 71% 29.89 in 3.1 mi SE 8.1 mph - N/A   Overcast
3:00 PM 50.0 °F - 39.2 °F 66% 29.89 in 3.1 mi SE 6.9 mph - N/A   Overcast
3:30 PM 50.0 °F - 41.0 °F 71% 29.89 in 3.1 mi SE 8.1 mph - N/A   Overcast
4:00 PM 50.0 °F - 41.0 °F 71% 29.89 in 3.1 mi SE 9.2 mph - N/A   Overcast
4:30 PM 51.8 °F - 41.0 °F 67% 29.89 in 3.1 mi SE 6.9 mph - N/A   Overcast
5:00 PM 50.0 °F - 41.0 °F 71% 29.89 in 3.7 mi ESE 6.9 mph - N/A   Overcast
5:30 PM 50.0 °F - 41.0 °F 71% 29.89 in 3.7 mi ESE 10.4 mph - N/A   Overcast
6:00 PM 50.0 °F - 39.2 °F 66% 29.89 in 3.7 mi SE 10.4 mph - N/A   Overcast
6:30 PM 50.0 °F - 39.2 °F 66% 29.89 in 3.7 mi ESE 9.2 mph - N/A   Overcast
7:00 PM 50.0 °F - 39.2 °F 66% 29.89 in 3.7 mi SE 9.2 mph - N/A   Overcast
7:30 PM 50.0 °F - 39.2 °F 66% 29.89 in 3.7 mi ESE 9.2 mph - N/A   Overcast
8:00 PM 50.0 °F - 39.2 °F 66% 29.89 in 3.7 mi SE 10.4 mph - N/A   Overcast
8:30 PM 50.0 °F - 39.2 °F 66% 29.92 in 3.7 mi ESE 9.2 mph - N/A   Overcast
9:00 PM 50.0 °F - 39.2 °F 66% 29.92 in 3.7 mi SE 11.5 mph - N/A   Overcast
9:30 PM 50.0 °F - 39.2 °F 66% 29.92 in 3.7 mi SE 8.1 mph - N/A   Overcast
10:00 PM 50.0 °F - 39.2 °F 66% 29.92 in 3.7 mi ESE 8.1 mph - N/A   Overcast
10:30 PM 50.0 °F - 39.2 °F 66% 29.92 in 3.7 mi ESE 8.1 mph - N/A   Overcast
11:00 PM 50.0 °F - 39.2 °F 66% 29.92 in 3.7 mi SE 9.2 mph - N/A   Overcast
11:30 PM 50.0 °F - 39.2 °F 66% 29.92 in 4.3 mi SE 8.1 mph - N/A   Overcast